809  
AXUS43 KLBF 091910  
MISLBF  
 
WESTERN AND NORTH CENTRAL NEBRASKA HOURLY WEATHER ROUNDUP  
NATIONAL WEATHER SERVICE NORTH PLATTE NE  
100 PM CST FRI DEC 09 2022  
 
NOTE: "FAIR" INDICATES FEW OR NO CLOUDS BELOW 12,000 FEET WITH NO  
SIGNIFICANT WEATHER AND/OR OBSTRUCTIONS TO VISIBILITY.  
 
NOTE: STATIONS NOT REPORTING SKY/WEATHER AND PRESSURE ARE  
PROVIDED BY RAWS AND APRS NETWORKS AND ARE NOT UNDER NATIONAL  
WEATHER SERVICE QUALITY CONTROL.  
   
..OBSERVATIONS IN AND NEAR THE EASTERN PANHANDLE OF NEBRASKA
 
 
 
CITY SKY/WX TMP DP RH WIND PRES REMARKS  
PINE RIDGE N/A 27 17 66 MISG 29.93  
GORDON PTSUNNY 28 15 60 CALM 29.95F  
CHADRON MOSUNNY 27 20 75 SE5 29.92F  
ALLIANCE PTSUNNY 34 20 56 S16G26 29.95F  
GURLEY FAIR 45 22 40 S24G31 N/A  
SIDNEY MOSUNNY 45 16 31 S28G36 29.94F  
LODGEPOLE FAIR 44 15 31 S22G28 29.92F  
CRESCENT LAKE N/A 38 18 43 S12G20 N/A  

 
   
..OBSERVATIONS IN NORTHERN NEBRASKA AND FAR SOUTHERN SOUTH DAKOTA
 
 
 
CITY SKY/WX TMP DP RH WIND PRES REMARKS  
WINNER PTSUNNY 25 17 72 S10 30.03F WCI 15  
VALENTINE PTSUNNY 27 19 72 SW3 30.01F  
AINSWORTH SUNNY 35 24 65 S6 30.03F  
O'NEILL CLOUDY 28 27 94 S5 30.08F FOG  
THEDFORD SUNNY 38 27 64 S6 30.03F  
BROKEN BOW SUNNY 35 26 69 CALM 30.06F  
ORD CLOUDY 30 27 88 S6 30.10F FOG  
ALBION CLOUDY 31 30 94 CALM 30.10F  
EWING N/A 31 30 95 S3 N/A  
CHAMBERS N/A 27 25 92 CALM N/A  
BUTTE N/A 26 25 94 S8 N/A WCI 18  
SPRINGVIEW N/A 34 26 72 CALM N/A  
VALENTINE NWR N/A 36 22 55 S6 N/A  
HALSEY N/A 40 27 59 NW5 N/A  

 
   
..OBSERVATIONS IN SOUTHWEST NEBRASKA AND FAR NORTHEAST COLORADO
 
 
 
CITY SKY/WX TMP DP RH WIND PRES REMARKS  
WRAY FAIR 48 10 21 S12 30.03F  
HOLYOKE SUNNY 48 12 23 S17 30.02F  
IMPERIAL SUNNY 45 15 30 S12 30.04F  
GRANT FAIR 43 16 33 S14 30.03F  
OGALLALA SUNNY 45 21 39 S10 30.02F  
NORTH PLATTE SUNNY 38 28 67 CALM 30.06F  
MCCOOK MOSUNNY 40 22 48 SW5 30.09F  
LEXINGTON MOSUNNY 38 29 69 SE3 30.09F  
CALLAWAY N/A 41 35 77 S9 N/A  
STAPLETON N/A 34 29 82 CALM N/A  

 
   
..OBSERVATIONS IN CENTRAL LINCOLN COUNTY AREA
 
 
 
CITY SKY/WX TMP DP RH WIND PRES REMARKS  
N.P. AIRPORT SUNNY 38 28 67 CALM 30.06F  
N.P. HILLCREST N/A 31 27 84 CALM N/A  
N.P. DOWNTOWN N/A 35 30 82 CALM N/A  

 
   
..OBSERVATIONS ACROSS THE ROCKIES AND WESTERN HIGH PLAINS
 
 
 
CITY SKY/WX TMP DP RH WIND PRES REMARKS  
SCOTTSBLUFF PTSUNNY 26 14 60 E7 29.95F WCI 18  
KIMBALL PTSUNNY 35 15 43 S20 29.94F  
CHEYENNE SUNNY 47 -4 12 SW16 29.91F  
DENVER MOSUNNY 43 -2 15 CALM 29.91F  
STEAMBOAT CLOUDY N/A N/A N/A CALM 30.03F  
COPPER MTN PTSUNNY 23 0 36 SW8G21 30.03F WCI 14  
LEADVILLE PTSUNNY 24 1 36 S9G16 30.01F WCI 14  
ASPEN CLOUDY 22 11 62 N5 30.05F WCI 16  
GUNNISON CLOUDY 16 5 62 CALM 30.16F  
TELLURIDE CLOUDY 32 0 25 S5 30.10F  
LARAMIE PTSUNNY 33 6 32 SW30G45 29.90F WCI 19  
CASPER PTSUNNY 36 18 48 SW32G44 29.86S  
GILLETTE PTSUNNY 37 17 44 SW30G41 29.75F  
SHERIDAN PTSUNNY 25 14 63 CALM 29.77F  
JACKSON LGT SNOW 12 5 73 SW3 29.92F  
YELLOWSTONE N/A 18 14 84 CALM 29.84F  

 
   
..OBSERVATIONS ACROSS THE NORTHERN PLAINS
 
 
 
CITY SKY/WX TMP DP RH WIND PRES REMARKS  
RAPID CITY PTSUNNY 48 17 29 S20 29.83F  
PIERRE PTSUNNY 28 22 78 SE14 30.00F WCI 17  
SIOUX FALLS CLOUDY 31 27 85 E10 30.11F FOG  
ABERDEEN FOG 21 19 92 SE3 30.10F VSB 1/2  
WILLISTON FAIR 21 18 86 E12 29.85F WCI 9  
DICKINSON PTSUNNY 22 16 78 SE12 29.83F WCI 10  
BISMARCK PTSUNNY 8 2 76 E7 30.01F WCI -3  
FARGO CLOUDY 27 26 96 SE8 30.15F FOG WCI 19  
GRAND FORKS FOG 21 18 88 S9 30.14F VSB 1/4 WCI 11  

 
   
..OBSERVATIONS ACROSS THE CENTRAL AND SOUTHERN PLAINS
 
 
 
CITY SKY/WX TMP DP RH WIND PRES REMARKS  
GRAND ISLAND CLOUDY 34 29 82 CALM 30.13F  
LINCOLN CLOUDY 36 31 82 N5 30.15F  
OMAHA CLOUDY 37 33 85 N6 30.13F  
DES MOINES CLOUDY 37 34 89 NW8 30.11S  
KANSAS CITY CLOUDY 38 31 76 W8 30.16F  
WICHITA PTSUNNY 43 30 60 W3 30.17F  
DODGE CITY PTSUNNY 47 24 40 S7 30.13F  
OKLAHOMA CITY PTSUNNY 52 37 56 E7 30.17F  
DALLAS CLOUDY 63 58 83 NE7 30.12F  
AMARILLO PTSUNNY 51 31 46 S15 30.09F  

 
 
 
CLICK HERE TO GO TO PREVIOUS BULLETINS.

The Nexlab NE Page Main Text Page